SCOUT B DEB, 2516

Orbit data source: Space-Track

SCOUT B DEB, 2516 is space debris in LEO originally from a launch on Fri, 10 Jun 1966 UTC launched from the Wallops Island (WLPIS). Debris objects in space refer to the collection of defunct objects orbiting the Earth. Examples of debris include non-operational satellites, rocket bodies, and fragments generated from explosions, collisions, or faulty payload assembly.

Loading next visibility...
Identifier
2516, 1966-052D
Orbit
LEO
Country
Flag of USUS
Related business
Manufacturer
Unknown
Mission
Spacecraft
Bus & Motor
Unknown
Mass
Unknown
Launch date (UTC)
1966-06-10 (60 years ago)
Launch vehicle
Unknown
Launch site
Wallops Island (WLPIS)
Object type
Payload
Rocket body
Debris
Shape & HBR
Unknown shape, 0.1 m
Radar Cross Section
Medium (>0.1 m² and <1 m²)

Expand to show TLE details & history
Last TLE update: 3 days ago

TLE from 3 days ago
0 SCOUT B DEB
1 02516U 66052D   26244.67897784  .00000022  00000-0  10685-3 0  9994
2 02516  41.0107 248.6745 2215736 172.9717 190.8314 10.00966097331758
Epoch: 2026-09-01T16:17Z
TLE epoch observation values (Epoch: 2026-09-01T16:17:43.685Z)
Latitude
-0°
Longitude
23.40007°
Altitude
4,707.074 km
Speed
5.302 km/s
True Right ascension
16h 34m 41s
True Declination
0° 00' 00"
Sunlit
Object was in daylight at epoch
Visualization orbit readout
Latitude
Unknown
Longitude
Unknown
Altitude
Unknown
Speed
Unknown
Apparent Right ascension
Unknown
Apparent Declination
Unknown
Sunlit
N/A
Visualization observer readout
Local Sidereal Time
01:36:53
Azimuth
Unknown
Elevation
Unknown
Doppler factor
Unknown
Orbital elements
Apogee altitude
4,733.989 km
Perigee altitude
702.871 km
Semi-major axis
9,096.567 km
Eccentricity
0.22157
Inclination
41.0107°
RAAN
248.6745°
Arg. of periapsis
172.9717°
True anomaly
187.08832°
Mean anomaly
190.8314°
Eccentric anomaly
188.87319°
Mean motion
2.50165 °/min
Orbital period
143.9 mins
BSTAR
0.00010685
Loading maneuver chart data...
Computing Atmospheric mass density...
Loading historical data...
Loading historical data...
Loading historical data...
Loading historical data...
Loading historical data...
Loading historical data...
Loading historical data...
Other satellites on launch #52 in the year 1966 (1966-06-10 UTC)

Documentation

Showing up to 5 results
|